Time,TemperatureF,DewpointF,PressureIn,WindDirection,WindDirectionDegrees,WindSpeedMPH,WindSpeedGustMPH,Humidity,HourlyPrecipIn,Conditions,Clouds,dailyrainin,SoftwareType,DateUTC
2013-10-27 00:00:00,76.4,63.4,30.10,ESE,117,2.2,3.1,64,0.00,,---,0.00,VWS V13.01,2013-10-27 04:00:00,
2013-10-27 00:01:00,71.9,63.0,30.09,NE,34,0.0,0.0,74,0.00,,---,0.00,VWS V13.01,2013-10-27 04:01:00,
2013-10-27 00:02:00,72.0,63.1,30.09,NE,34,0.0,0.0,74,0.00,,---,0.00,VWS V13.01,2013-10-27 04:02:00,
2013-10-27 00:03:00,72.1,63.2,30.08,NE,34,0.0,0.0,74,0.00,,---,0.00,VWS V13.01,2013-10-27 04:03:00,
2013-10-27 00:06:00,71.9,63.1,30.08,NE,34,0.0,0.0,74,0.00,,---,0.00,VWS V13.01,2013-10-27 04:06:00,
2013-10-27 00:11:00,71.7,63.1,30.08,NE,34,0.0,0.0,74,0.00,,---,0.00,VWS V13.01,2013-10-27 04:11:00,
2013-10-27 00:16:00,71.5,63.2,30.08,NNE,25,0.0,2.4,75,0.00,,---,0.00,VWS V13.01,2013-10-27 04:16:00,
2013-10-27 00:21:00,71.5,63.1,30.09,ENE,68,0.0,0.0,75,0.00,,---,0.00,VWS V13.01,2013-10-27 04:21:00,
2013-10-27 00:26:00,71.5,63.0,30.09,ENE,68,0.0,0.0,75,0.00,,---,0.00,VWS V13.01,2013-10-27 04:26:00,
2013-10-27 00:31:00,71.5,63.1,30.08,ENE,68,0.0,0.0,75,0.00,,---,0.00,VWS V13.01,2013-10-27 04:31:00,
2013-10-27 00:36:00,71.3,63.0,30.09,NE,55,0.0,0.8,75,0.00,,---,0.00,VWS V13.01,2013-10-27 04:36:00,
2013-10-27 00:41:00,71.3,63.0,30.08,NE,55,0.0,0.0,75,0.00,,---,0.00,VWS V13.01,2013-10-27 04:41:00,
2013-10-27 00:46:00,71.2,63.0,30.08,NE,55,0.0,0.0,75,0.00,,---,0.00,VWS V13.01,2013-10-27 04:46:00,
2013-10-27 00:51:00,71.0,62.9,30.08,NE,53,0.0,0.0,76,0.00,,---,0.00,VWS V13.01,2013-10-27 04:51:00,
2013-10-27 00:56:00,70.9,63.0,30.08,NE,55,0.9,1.9,76,0.00,,---,0.00,VWS V13.01,2013-10-27 04:56:00,
2013-10-27 01:01:00,71.0,63.0,30.08,NE,46,1.4,2.3,76,0.00,,---,0.00,VWS V13.01,2013-10-27 05:01:00,
2013-10-27 01:06:00,71.0,62.9,30.08,NNE,15,0.0,0.0,76,0.00,,---,0.00,VWS V13.01,2013-10-27 05:06:00,
2013-10-27 01:11:00,70.9,62.8,30.08,NE,38,0.0,0.0,76,0.00,,---,0.00,VWS V13.01,2013-10-27 05:11:00,
2013-10-27 01:17:00,70.8,62.8,30.08,NE,55,0.0,0.0,76,0.00,,---,0.00,VWS V13.01,2013-10-27 05:17:00,
2013-10-27 01:22:00,70.8,62.9,30.08,NE,55,0.0,0.0,76,0.00,,---,0.00,VWS V13.01,2013-10-27 05:22:00,
2013-10-27 01:27:00,70.8,63.0,30.08,NNE,25,0.0,0.0,76,0.00,,---,0.00,VWS V13.01,2013-10-27 05:27:00,
2013-10-27 01:32:00,70.6,62.9,30.08,NNE,25,0.0,0.0,76,0.00,,---,0.00,VWS V13.01,2013-10-27 05:32:00,
2013-10-27 01:37:00,70.7,63.0,30.08,NNE,31,0.4,0.4,77,0.00,,---,0.00,VWS V13.01,2013-10-27 05:37:00,
2013-10-27 01:42:00,70.6,62.9,30.08,NNE,13,0.0,0.0,77,0.00,,---,0.00,VWS V13.01,2013-10-27 05:42:00,
2013-10-27 01:47:00,70.5,63.0,30.07,North,6,0.8,1.6,77,0.00,,---,0.00,VWS V13.01,2013-10-27 05:47:00,
2013-10-27 01:52:00,70.5,63.0,30.07,North,7,0.0,0.0,77,0.00,,---,0.00,VWS V13.01,2013-10-27 05:52:00,
2013-10-27 01:57:00,70.5,63.0,30.07,NNE,20,1.1,1.4,77,0.00,,---,0.00,VWS V13.01,2013-10-27 05:57:00,
2013-10-27 02:02:00,70.4,62.9,30.07,NE,45,0.0,0.0,77,0.00,,---,0.00,VWS V13.01,2013-10-27 06:02:00,
2013-10-27 02:07:00,70.3,62.8,30.07,ENE,59,0.0,0.0,77,0.00,,---,0.00,VWS V13.01,2013-10-27 06:07:00,
2013-10-27 02:12:00,70.2,62.8,30.07,ENE,59,0.0,0.0,77,0.00,,---,0.00,VWS V13.01,2013-10-27 06:12:00,
2013-10-27 02:17:00,70.2,62.9,30.07,ENE,59,0.0,0.0,78,0.00,,---,0.00,VWS V13.01,2013-10-27 06:17:00,
2013-10-27 02:22:00,70.2,62.9,30.06,ENE,59,0.0,0.0,78,0.00,,---,0.00,VWS V13.01,2013-10-27 06:22:00,
2013-10-27 02:27:00,70.0,62.8,30.06,NNE,30,0.4,1.2,78,0.00,,---,0.00,VWS V13.01,2013-10-27 06:27:00,
2013-10-27 02:32:00,70.2,63.0,30.06,NE,49,0.0,0.0,78,0.00,,---,0.00,VWS V13.01,2013-10-27 06:32:00,
2013-10-27 02:37:00,70.1,63.0,30.06,North,8,2.8,3.1,78,0.00,,---,0.00,VWS V13.01,2013-10-27 06:37:00,
2013-10-27 02:42:00,70.3,63.1,30.07,ENE,65,0.0,0.0,78,0.00,,---,0.00,VWS V13.01,2013-10-27 06:42:00,
2013-10-27 02:47:00,70.5,63.2,30.07,NE,42,2.1,3.2,78,0.00,,---,0.00,VWS V13.01,2013-10-27 06:47:00,
2013-10-27 02:52:00,70.5,63.1,30.07,North,357,2.0,2.7,77,0.00,,---,0.00,VWS V13.01,2013-10-27 06:52:00,
2013-10-27 02:57:00,70.5,63.0,30.06,NE,34,0.0,0.0,77,0.00,,---,0.00,VWS V13.01,2013-10-27 06:57:00,
2013-10-27 03:02:00,70.7,63.2,30.06,NE,34,0.0,0.0,77,0.00,,---,0.00,VWS V13.01,2013-10-27 07:02:00,
2013-10-27 03:08:00,70.5,63.0,30.06,ENE,72,0.0,0.6,77,0.00,,---,0.00,VWS V13.01,2013-10-27 07:08:00,
2013-10-27 03:13:00,70.5,63.0,30.06,ENE,72,0.0,0.0,77,0.00,,---,0.00,VWS V13.01,2013-10-27 07:13:00,
2013-10-27 03:18:00,70.5,63.0,30.06,East,82,0.0,2.4,77,0.00,,---,0.00,VWS V13.01,2013-10-27 07:18:00,
2013-10-27 03:23:00,70.4,62.9,30.06,East,82,0.0,0.0,77,0.00,,---,0.00,VWS V13.01,2013-10-27 07:23:00,
2013-10-27 03:28:00,70.3,62.8,30.06,ENE,69,0.0,0.3,77,0.00,,---,0.00,VWS V13.01,2013-10-27 07:28:00,
2013-10-27 03:33:00,70.4,62.9,30.06,NE,52,0.0,0.6,77,0.00,,---,0.00,VWS V13.01,2013-10-27 07:33:00,
2013-10-27 03:38:00,70.1,62.6,30.06,NE,49,0.0,0.0,77,0.00,,---,0.00,VWS V13.01,2013-10-27 07:38:00,
2013-10-27 03:43:00,70.1,62.7,30.06,ENE,72,0.0,0.0,77,0.00,,---,0.00,VWS V13.01,2013-10-27 07:43:00,
2013-10-27 03:48:00,70.3,62.9,30.06,North,354,1.2,2.5,77,0.00,,---,0.00,VWS V13.01,2013-10-27 07:48:00,
2013-10-27 03:53:00,70.1,62.6,30.06,NE,38,0.0,0.9,77,0.00,,---,0.00,VWS V13.01,2013-10-27 07:53:00,
2013-10-27 03:58:00,70.2,62.7,30.06,NE,38,0.0,0.0,77,0.00,,---,0.00,VWS V13.01,2013-10-27 07:58:00,
2013-10-27 04:03:00,70.1,62.5,30.05,NE,38,0.0,0.0,77,0.00,,---,0.00,VWS V13.01,2013-10-27 08:03:00,
2013-10-27 04:08:00,70.1,62.5,30.05,NNW,343,0.0,0.0,77,0.00,,---,0.00,VWS V13.01,2013-10-27 08:08:00,
2013-10-27 04:13:00,70.0,62.3,30.05,East,87,0.0,0.0,77,0.00,,---,0.00,VWS V13.01,2013-10-27 08:13:00,
2013-10-27 04:18:00,70.0,62.2,30.06,NW,316,0.0,0.7,76,0.00,,---,0.00,VWS V13.01,2013-10-27 08:18:00,
2013-10-27 04:23:00,70.1,62.4,30.06,NE,44,0.0,1.6,77,0.00,,---,0.00,VWS V13.01,2013-10-27 08:23:00,
2013-10-27 04:28:00,69.9,62.3,30.06,NNE,18,0.0,0.7,77,0.00,,---,0.00,VWS V13.01,2013-10-27 08:28:00,
2013-10-27 04:33:00,70.0,62.4,30.06,NE,42,0.4,1.8,77,0.00,,---,0.00,VWS V13.01,2013-10-27 08:33:00,
2013-10-27 04:38:00,69.9,62.3,30.06,ENE,65,0.2,2.5,77,0.00,,---,0.00,VWS V13.01,2013-10-27 08:38:00,
2013-10-27 04:43:00,69.9,62.2,30.05,ENE,73,2.1,2.1,77,0.00,,---,0.00,VWS V13.01,2013-10-27 08:43:00,
2013-10-27 04:48:00,70.0,62.3,30.05,NE,38,0.6,1.3,77,0.00,,---,0.00,VWS V13.01,2013-10-27 08:48:00,
2013-10-27 04:53:00,69.8,62.1,30.06,NE,38,0.0,0.0,77,0.00,,---,0.00,VWS V13.01,2013-10-27 08:53:00,
2013-10-27 04:58:00,69.6,62.0,30.06,NE,38,0.0,0.0,77,0.00,,---,0.00,VWS V13.01,2013-10-27 08:58:00,
2013-10-27 05:03:00,69.6,62.0,30.05,NE,38,0.0,0.0,77,0.00,,---,0.00,VWS V13.01,2013-10-27 09:03:00,
2013-10-27 05:08:00,69.5,62.0,30.05,NE,38,0.0,0.0,77,0.00,,---,0.00,VWS V13.01,2013-10-27 09:08:00,
2013-10-27 05:13:00,69.5,62.1,30.05,North,357,0.0,0.5,77,0.00,,---,0.00,VWS V13.01,2013-10-27 09:13:00,
2013-10-27 05:18:00,69.2,61.8,30.05,North,357,0.0,0.0,77,0.00,,---,0.00,VWS V13.01,2013-10-27 09:18:00,
2013-10-27 05:23:00,69.1,61.8,30.06,NNE,15,0.0,0.0,78,0.00,,---,0.00,VWS V13.01,2013-10-27 09:23:00,
2013-10-27 05:28:00,69.0,61.8,30.06,NNE,15,0.0,0.0,78,0.00,,---,0.00,VWS V13.01,2013-10-27 09:28:00,
2013-10-27 05:33:00,69.0,61.9,30.05,NNE,15,0.0,0.0,78,0.00,,---,0.00,VWS V13.01,2013-10-27 09:33:00,
2013-10-27 05:38:00,68.6,61.6,30.05,NNE,15,0.0,0.0,78,0.00,,---,0.00,VWS V13.01,2013-10-27 09:38:00,
2013-10-27 05:43:00,68.7,61.8,30.05,NNE,15,0.0,0.0,79,0.00,,---,0.00,VWS V13.01,2013-10-27 09:43:00,
2013-10-27 05:48:00,68.8,62.0,30.05,NNE,15,0.0,0.0,79,0.00,,---,0.00,VWS V13.01,2013-10-27 09:48:00,
2013-10-27 05:53:00,68.4,61.6,30.06,NNE,15,0.0,0.0,79,0.00,,---,0.00,VWS V13.01,2013-10-27 09:53:00,
2013-10-27 05:58:00,68.3,61.6,30.06,NNE,15,0.0,0.0,79,0.00,,---,0.00,VWS V13.01,2013-10-27 09:58:00,
2013-10-27 06:03:00,68.4,61.8,30.06,NNE,15,0.0,0.0,79,0.00,,---,0.00,VWS V13.01,2013-10-27 10:03:00,
2013-10-27 06:08:00,68.1,61.6,30.05,NNE,15,0.0,0.0,80,0.00,,---,0.00,VWS V13.01,2013-10-27 10:08:00,
2013-10-27 06:14:00,67.9,61.5,30.06,NNE,15,0.0,0.0,80,0.00,,---,0.00,VWS V13.01,2013-10-27 10:14:00,
2013-10-27 06:19:00,67.9,61.8,30.06,NNW,333,0.0,0.0,81,0.00,,---,0.00,VWS V13.01,2013-10-27 10:19:00,
2013-10-27 06:24:00,67.9,61.9,30.05,NE,51,0.0,0.0,81,0.00,,---,0.00,VWS V13.01,2013-10-27 10:24:00,
2013-10-27 06:29:00,67.8,62.0,30.06,NNW,347,0.8,1.8,82,0.00,,---,0.00,VWS V13.01,2013-10-27 10:29:00,
2013-10-27 06:34:00,67.8,61.9,30.07,NNE,13,0.0,0.0,82,0.00,,---,0.00,VWS V13.01,2013-10-27 10:34:00,
2013-10-27 06:39:00,67.5,61.7,30.06,NNE,30,0.0,0.9,82,0.00,,---,0.00,VWS V13.01,2013-10-27 10:39:00,
2013-10-27 06:44:00,67.8,62.0,30.07,NNE,21,0.0,0.0,82,0.00,,---,0.00,VWS V13.01,2013-10-27 10:44:00,
2013-10-27 06:49:00,67.4,61.6,30.07,NNE,21,0.0,0.0,82,0.00,,---,0.00,VWS V13.01,2013-10-27 10:49:00,
2013-10-27 06:54:00,67.3,61.5,30.07,NNE,21,0.0,0.0,82,0.00,,---,0.00,VWS V13.01,2013-10-27 10:54:00,
2013-10-27 06:59:00,67.2,61.6,30.06,NNE,31,0.0,1.4,82,0.00,,---,0.00,VWS V13.01,2013-10-27 10:59:00,
2013-10-27 07:04:00,67.3,61.8,30.07,NNE,31,0.0,0.0,82,0.00,,---,0.00,VWS V13.01,2013-10-27 11:04:00,
2013-10-27 07:09:00,67.3,61.9,30.07,NE,49,0.0,0.3,83,0.00,,---,0.00,VWS V13.01,2013-10-27 11:09:00,
2013-10-27 07:14:00,67.4,62.0,30.07,NNW,332,0.3,1.1,83,0.00,,---,0.00,VWS V13.01,2013-10-27 11:14:00,
2013-10-27 07:19:00,67.4,61.9,30.06,NNW,332,0.0,0.0,82,0.00,,---,0.00,VWS V13.01,2013-10-27 11:19:00,
2013-10-27 07:24:00,67.6,62.2,30.06,NNW,343,0.6,0.7,83,0.00,,---,0.00,VWS V13.01,2013-10-27 11:24:00,
2013-10-27 07:29:00,67.6,62.2,30.06,NNE,25,0.0,1.1,83,0.00,,---,0.00,VWS V13.01,2013-10-27 11:29:00,
2013-10-27 07:34:00,67.7,62.2,30.07,NNE,32,0.0,0.0,83,0.00,,---,0.00,VWS V13.01,2013-10-27 11:34:00,
2013-10-27 07:39:00,67.7,62.2,30.07,NE,37,0.0,0.6,82,0.00,,---,0.00,VWS V13.01,2013-10-27 11:39:00,
2013-10-27 07:44:00,67.8,62.2,30.08,NNE,25,0.0,0.0,82,0.00,,---,0.00,VWS V13.01,2013-10-27 11:44:00,
2013-10-27 07:49:00,68.0,62.3,30.08,NNE,25,0.0,0.0,82,0.00,,---,0.00,VWS V13.01,2013-10-27 11:49:00,
2013-10-27 07:54:00,68.0,62.3,30.08,NNE,25,0.0,0.0,82,0.00,,---,0.00,VWS V13.01,2013-10-27 11:54:00,
2013-10-27 07:59:00,67.7,62.0,30.08,NNE,25,0.0,0.0,82,0.00,,---,0.00,VWS V13.01,2013-10-27 11:59:00,
2013-10-27 08:04:00,67.9,62.3,30.08,North,3,0.0,1.1,82,0.00,,---,0.00,VWS V13.01,2013-10-27 12:04:00,
2013-10-27 08:09:00,68.0,62.3,30.08,NE,42,0.0,0.7,82,0.00,,---,0.00,VWS V13.01,2013-10-27 12:09:00,
2013-10-27 08:14:00,68.1,62.4,30.09,NE,41,0.0,0.0,82,0.00,,---,0.00,VWS V13.01,2013-10-27 12:14:00,
2013-10-27 08:19:00,68.5,62.7,30.09,NNE,32,0.0,0.0,82,0.00,,---,0.00,VWS V13.01,2013-10-27 12:19:00,
2013-10-27 08:24:00,68.6,62.6,30.08,NE,44,0.0,1.9,81,0.00,,---,0.00,VWS V13.01,2013-10-27 12:24:00,
2013-10-27 08:29:00,69.0,62.6,30.09,NNW,338,0.5,3.2,80,0.00,,---,0.00,VWS V13.01,2013-10-27 12:29:00,
2013-10-27 08:32:00,69.1,62.6,30.09,NNW,328,0.0,0.0,80,0.00,,---,0.00,VWS V13.01,2013-10-27 12:32:00,
2013-10-27 08:37:00,69.4,62.4,30.10,ENE,65,0.4,1.2,78,0.00,,---,0.00,VWS V13.01,2013-10-27 12:37:00,
2013-10-27 08:42:00,69.9,62.4,30.10,North,354,1.8,3.3,77,0.00,,---,0.00,VWS V13.01,2013-10-27 12:42:00,
2013-10-27 08:47:00,70.5,62.8,30.10,NE,52,0.9,2.4,77,0.00,,---,0.00,VWS V13.01,2013-10-27 12:47:00,
2013-10-27 08:52:00,71.0,62.7,30.10,NNE,24,0.0,3.2,75,0.00,,---,0.00,VWS V13.01,2013-10-27 12:52:00,
2013-10-27 08:57:00,71.3,62.9,30.09,NNE,28,0.0,0.0,75,0.00,,---,0.00,VWS V13.01,2013-10-27 12:57:00,
2013-10-27 09:02:00,71.6,62.8,30.10,NNE,18,0.0,0.0,74,0.00,,---,0.00,VWS V13.01,2013-10-27 13:02:00,
2013-10-27 09:07:00,72.2,63.1,30.09,East,87,3.1,3.2,73,0.00,,---,0.00,VWS V13.01,2013-10-27 13:07:00,
2013-10-27 09:13:00,72.5,62.8,30.09,NNE,28,2.0,3.7,72,0.00,,---,0.00,VWS V13.01,2013-10-27 13:13:00,
2013-10-27 09:18:00,73.3,63.3,30.10,North,3,0.0,1.7,71,0.00,,---,0.00,VWS V13.01,2013-10-27 13:18:00,
2013-10-27 09:23:00,74.0,63.4,30.10,ENE,66,1.4,2.8,70,0.00,,---,0.00,VWS V13.01,2013-10-27 13:23:00,
2013-10-27 09:28:00,74.5,62.5,30.10,East,98,5.4,5.4,66,0.00,,---,0.00,VWS V13.01,2013-10-27 13:28:00,
2013-10-27 09:33:00,75.2,62.9,30.10,East,96,0.9,3.9,66,0.00,,---,0.00,VWS V13.01,2013-10-27 13:33:00,
2013-10-27 09:38:00,75.7,63.4,30.10,NNE,31,1.5,2.9,66,0.00,,---,0.00,VWS V13.01,2013-10-27 13:38:00,
2013-10-27 09:43:00,76.4,63.2,30.10,NNE,18,4.5,4.5,64,0.00,,---,0.00,VWS V13.01,2013-10-27 13:43:00,
2013-10-27 09:48:00,77.1,63.5,30.10,NE,42,2.4,3.0,63,0.00,,---,0.00,VWS V13.01,2013-10-27 13:48:00,
2013-10-27 09:53:00,77.7,64.2,30.10,NNE,18,0.0,3.7,63,0.00,,---,0.00,VWS V13.01,2013-10-27 13:53:00,
2013-10-27 09:58:00,77.9,63.8,30.10,NE,53,2.2,4.7,62,0.00,,---,0.00,VWS V13.01,2013-10-27 13:58:00,
2013-10-27 10:03:00,78.3,63.8,30.10,ENE,65,3.3,4.5,61,0.00,,---,0.00,VWS V13.01,2013-10-27 14:03:00,
2013-10-27 10:08:00,78.7,64.4,30.10,East,94,2.3,3.8,62,0.00,,---,0.00,VWS V13.01,2013-10-27 14:08:00,
2013-10-27 10:13:00,79.0,64.2,30.10,North,3,1.6,3.7,60,0.00,,---,0.00,VWS V13.01,2013-10-27 14:13:00,
2013-10-27 10:18:00,79.4,64.6,30.11,ENE,59,0.6,2.0,60,0.00,,---,0.00,VWS V13.01,2013-10-27 14:18:00,
2013-10-27 10:23:00,79.5,64.5,30.11,East,93,1.6,4.2,60,0.00,,---,0.00,VWS V13.01,2013-10-27 14:23:00,
2013-10-27 10:28:00,79.9,64.3,30.11,NE,55,3.2,4.3,59,0.00,,---,0.00,VWS V13.01,2013-10-27 14:28:00,
2013-10-27 10:33:00,80.4,64.4,30.11,NE,38,2.0,3.4,58,0.00,,---,0.00,VWS V13.01,2013-10-27 14:33:00,
2013-10-27 10:39:00,80.2,64.5,30.11,East,89,4.5,4.7,59,0.00,,---,0.00,VWS V13.01,2013-10-27 14:39:00,
2013-10-27 10:44:00,80.2,64.4,30.11,SE,141,1.1,3.5,59,0.00,,---,0.00,VWS V13.01,2013-10-27 14:44:00,
2013-10-27 10:49:00,80.2,64.6,30.11,East,82,3.6,5.8,59,0.00,,---,0.00,VWS V13.01,2013-10-27 14:49:00,
2013-10-27 10:54:00,80.3,65.0,30.11,NE,46,2.4,5.3,60,0.00,,---,0.00,VWS V13.01,2013-10-27 14:54:00,
2013-10-27 10:59:00,80.2,64.8,30.12,NE,42,1.2,5.3,60,0.00,,---,0.00,VWS V13.01,2013-10-27 14:59:00,
2013-10-27 11:04:00,80.3,65.1,30.11,NE,39,4.5,7.0,60,0.00,,---,0.00,VWS V13.01,2013-10-27 15:04:00,
2013-10-27 11:09:00,80.4,64.5,30.12,ENE,65,3.2,3.5,58,0.00,,---,0.00,VWS V13.01,2013-10-27 15:09:00,
2013-10-27 11:14:00,80.3,65.2,30.12,East,94,2.3,2.3,60,0.00,,---,0.00,VWS V13.01,2013-10-27 15:14:00,
2013-10-27 11:19:00,80.3,63.6,30.11,ESE,108,3.9,5.3,57,0.00,,---,0.00,VWS V13.01,2013-10-27 15:19:00,
2013-10-27 11:24:00,80.2,64.3,30.11,East,101,4.0,6.0,58,0.00,,---,0.00,VWS V13.01,2013-10-27 15:24:00,
2013-10-27 11:29:00,80.3,64.9,30.11,East,100,2.0,2.4,59,0.00,,---,0.00,VWS V13.01,2013-10-27 15:29:00,
2013-10-27 11:34:00,80.3,63.6,30.11,SSE,149,4.3,7.1,57,0.00,,---,0.00,VWS V13.01,2013-10-27 15:34:00,
2013-10-27 11:39:00,80.9,63.0,30.11,ESE,112,6.8,9.2,54,0.00,,---,0.00,VWS V13.01,2013-10-27 15:39:00,
2013-10-27 11:44:00,80.9,63.3,30.11,East,80,4.2,6.6,55,0.00,,---,0.00,VWS V13.01,2013-10-27 15:44:00,
2013-10-27 11:49:00,80.9,63.6,30.11,ENE,63,2.4,3.4,56,0.00,,---,0.00,VWS V13.01,2013-10-27 15:49:00,
2013-10-27 11:54:00,81.2,64.5,30.10,SE,128,4.0,4.0,57,0.00,,---,0.00,VWS V13.01,2013-10-27 15:54:00,
2013-10-27 11:59:00,81.1,63.7,30.10,NE,38,0.9,1.5,56,0.00,,---,0.00,VWS V13.01,2013-10-27 15:59:00,
2013-10-27 12:04:00,80.9,64.3,30.10,ESE,105,4.2,6.5,57,0.00,,---,0.00,VWS V13.01,2013-10-27 16:04:00,
2013-10-27 12:09:00,80.6,63.6,30.10,ENE,70,4.3,8.3,56,0.00,,---,0.00,VWS V13.01,2013-10-27 16:09:00,
2013-10-27 12:14:00,81.1,63.5,30.10,ENE,58,3.5,6.1,55,0.00,,---,0.00,VWS V13.01,2013-10-27 16:14:00,
2013-10-27 12:19:00,81.0,63.6,30.10,SE,139,6.7,8.8,56,0.00,,---,0.00,VWS V13.01,2013-10-27 16:19:00,
2013-10-27 12:24:00,81.3,63.7,30.10,ENE,66,3.0,5.4,55,0.00,,---,0.00,VWS V13.01,2013-10-27 16:24:00,
2013-10-27 12:29:00,81.1,63.0,30.10,East,90,6.1,7.6,54,0.00,,---,0.00,VWS V13.01,2013-10-27 16:29:00,
2013-10-27 12:34:00,81.1,62.7,30.10,SE,127,5.1,8.1,54,0.00,,---,0.00,VWS V13.01,2013-10-27 16:34:00,
2013-10-27 12:39:00,81.3,63.8,30.09,SE,134,3.7,7.3,55,0.00,,---,0.00,VWS V13.01,2013-10-27 16:39:00,
2013-10-27 12:44:00,81.3,62.5,30.09,SE,129,3.1,8.8,53,0.00,,---,0.00,VWS V13.01,2013-10-27 16:44:00,
2013-10-27 12:49:00,81.5,62.9,30.09,ENE,69,4.8,7.8,53,0.00,,---,0.00,VWS V13.01,2013-10-27 16:49:00,
2013-10-27 12:54:00,81.5,63.1,30.09,ENE,66,5.9,7.9,54,0.00,,---,0.00,VWS V13.01,2013-10-27 16:54:00,
2013-10-27 12:59:00,81.3,62.7,30.08,SE,135,6.4,6.9,53,0.00,,---,0.00,VWS V13.01,2013-10-27 16:59:00,
2013-10-27 13:04:00,80.9,62.9,30.08,SE,129,3.7,10.0,54,0.00,,---,0.00,VWS V13.01,2013-10-27 17:04:00,
2013-10-27 13:09:00,81.1,62.7,30.08,NE,49,4.0,8.1,54,0.00,,---,0.00,VWS V13.01,2013-10-27 17:09:00,
2013-10-27 13:14:00,81.6,62.0,30.08,ESE,112,5.5,7.0,51,0.00,,---,0.00,VWS V13.01,2013-10-27 17:14:00,
2013-10-27 13:19:00,81.1,62.6,30.08,ESE,108,4.5,7.6,53,0.00,,---,0.00,VWS V13.01,2013-10-27 17:19:00,
2013-10-27 13:24:00,81.3,63.1,30.08,NE,45,5.5,6.6,54,0.00,,---,0.00,VWS V13.01,2013-10-27 17:24:00,
2013-10-27 13:30:00,81.5,62.4,30.07,ENE,62,3.1,5.6,52,0.00,,---,0.00,VWS V13.01,2013-10-27 17:30:00,
2013-10-27 13:35:00,81.3,63.1,30.07,ESE,105,4.8,8.3,54,0.00,,---,0.00,VWS V13.01,2013-10-27 17:35:00,
2013-10-27 13:40:00,81.3,63.5,30.07,NE,48,5.7,8.5,55,0.00,,---,0.00,VWS V13.01,2013-10-27 17:40:00,
2013-10-27 13:45:00,81.5,63.6,30.07,ENE,73,5.9,7.1,55,0.00,,---,0.00,VWS V13.01,2013-10-27 17:45:00,
2013-10-27 13:50:00,81.6,63.3,30.07,NE,42,2.3,6.4,54,0.00,,---,0.00,VWS V13.01,2013-10-27 17:50:00,
2013-10-27 13:55:00,82.1,62.5,30.06,ESE,114,9.1,9.1,52,0.00,,---,0.00,VWS V13.01,2013-10-27 17:55:00,
2013-10-27 14:00:00,82.0,63.5,30.06,SE,128,5.6,5.6,54,0.00,,---,0.00,VWS V13.01,2013-10-27 18:00:00,
2013-10-27 14:05:00,81.7,63.2,30.06,ESE,110,13.0,13.0,54,0.00,,---,0.00,VWS V13.01,2013-10-27 18:05:00,
2013-10-27 14:10:00,81.4,63.0,30.06,East,94,6.5,8.0,54,0.00,,---,0.00,VWS V13.01,2013-10-27 18:10:00,
2013-10-27 14:15:00,81.9,63.5,30.05,SE,136,4.0,4.0,54,0.00,,---,0.00,VWS V13.01,2013-10-27 18:15:00,
2013-10-27 14:20:00,81.4,63.2,30.05,ESE,111,10.6,11.4,54,0.00,,---,0.00,VWS V13.01,2013-10-27 18:20:00,
2013-10-27 14:25:00,80.8,63.2,30.05,ESE,110,6.3,8.3,55,0.00,,---,0.00,VWS V13.01,2013-10-27 18:25:00,
2013-10-27 14:30:00,80.9,62.8,30.04,ENE,69,3.0,6.7,54,0.00,,---,0.00,VWS V13.01,2013-10-27 18:30:00,
2013-10-27 14:35:00,81.2,63.1,30.04,NNE,30,2.6,7.1,54,0.00,,---,0.00,VWS V13.01,2013-10-27 18:35:00,
2013-10-27 14:40:00,81.3,63.0,30.04,East,101,5.0,9.3,54,0.00,,---,0.00,VWS V13.01,2013-10-27 18:40:00,
2013-10-27 14:45:00,81.2,62.9,30.03,East,82,6.5,9.7,54,0.00,,---,0.00,VWS V13.01,2013-10-27 18:45:00,
2013-10-27 14:50:00,81.6,62.8,30.03,SE,135,5.3,11.8,53,0.00,,---,0.00,VWS V13.01,2013-10-27 18:50:00,
2013-10-27 14:55:00,81.4,63.4,30.03,ESE,112,4.9,8.0,54,0.00,,---,0.00,VWS V13.01,2013-10-27 18:55:00,
2013-10-27 15:00:00,81.5,63.1,30.03,ENE,73,8.0,10.7,54,0.00,,---,0.00,VWS V13.01,2013-10-27 19:00:00,
2013-10-27 15:05:00,81.5,63.5,30.03,ESE,118,6.3,10.2,54,0.00,,---,0.00,VWS V13.01,2013-10-27 19:05:00,
2013-10-27 15:10:00,81.4,63.1,30.03,East,91,4.8,6.0,54,0.00,,---,0.00,VWS V13.01,2013-10-27 19:10:00,
2013-10-27 15:15:00,81.8,63.1,30.03,NE,49,3.9,7.4,53,0.00,,---,0.00,VWS V13.01,2013-10-27 19:15:00,
2013-10-27 15:20:00,81.6,62.3,30.03,ESE,108,7.8,9.1,52,0.00,,---,0.00,VWS V13.01,2013-10-27 19:20:00,
2013-10-27 15:25:00,81.8,63.0,30.03,ESE,118,6.8,8.5,53,0.00,,---,0.00,VWS V13.01,2013-10-27 19:25:00,
2013-10-27 15:30:00,82.2,63.1,30.03,SE,129,7.6,8.6,52,0.00,,---,0.00,VWS V13.01,2013-10-27 19:30:00,
2013-10-27 15:35:00,82.2,62.5,30.03,East,93,5.4,8.6,51,0.00,,---,0.00,VWS V13.01,2013-10-27 19:35:00,
2013-10-27 15:40:00,82.1,62.3,30.03,East,93,6.2,14.0,51,0.00,,---,0.00,VWS V13.01,2013-10-27 19:40:00,
2013-10-27 15:45:00,82.5,62.9,30.02,ENE,59,0.5,4.3,52,0.00,,---,0.00,VWS V13.01,2013-10-27 19:45:00,
2013-10-27 15:50:00,82.0,62.8,30.03,ESE,111,2.2,7.1,52,0.00,,---,0.00,VWS V13.01,2013-10-27 19:50:00,
2013-10-27 15:56:00,82.1,63.0,30.03,East,90,2.2,5.0,52,0.00,,---,0.00,VWS V13.01,2013-10-27 19:56:00,
2013-10-27 16:01:00,82.0,62.4,30.03,ESE,118,5.0,12.1,52,0.00,,---,0.00,VWS V13.01,2013-10-27 20:01:00,
2013-10-27 16:06:00,82.2,62.7,30.02,East,98,4.5,6.0,52,0.00,,---,0.00,VWS V13.01,2013-10-27 20:06:00,
2013-10-27 16:11:00,82.2,65.4,30.03,SE,128,3.8,6.8,57,0.00,,---,0.00,VWS V13.01,2013-10-27 20:11:00,
2013-10-27 16:16:00,81.8,64.9,30.03,NW,308,2.2,4.8,57,0.00,,---,0.00,VWS V13.01,2013-10-27 20:16:00,
2013-10-27 16:21:00,81.5,65.6,30.03,ENE,66,4.6,6.0,58,0.00,,---,0.00,VWS V13.01,2013-10-27 20:21:00,
2013-10-27 16:26:00,81.4,65.6,30.03,East,90,2.8,4.5,59,0.00,,---,0.00,VWS V13.01,2013-10-27 20:26:00,
2013-10-27 16:31:00,81.2,66.1,30.03,ESE,105,7.6,7.6,60,0.00,,---,0.00,VWS V13.01,2013-10-27 20:31:00,
2013-10-27 16:36:00,80.9,65.3,30.03,East,96,7.6,8.6,59,0.00,,---,0.00,VWS V13.01,2013-10-27 20:36:00,
2013-10-27 16:41:00,80.4,65.0,30.03,ESE,117,4.8,7.7,60,0.00,,---,0.00,VWS V13.01,2013-10-27 20:41:00,
2013-10-27 16:46:00,80.4,65.2,30.03,ESE,120,4.2,6.6,60,0.00,,---,0.00,VWS V13.01,2013-10-27 20:46:00,
2013-10-27 16:51:00,80.3,65.3,30.03,ESE,118,3.7,5.0,60,0.00,,---,0.00,VWS V13.01,2013-10-27 20:51:00,
2013-10-27 16:56:00,80.5,65.2,30.03,ESE,111,3.2,3.2,60,0.00,,---,0.00,VWS V13.01,2013-10-27 20:56:00,
2013-10-27 17:01:00,80.4,65.2,30.03,East,91,1.2,5.2,60,0.00,,---,0.00,VWS V13.01,2013-10-27 21:01:00,
2013-10-27 17:06:00,80.4,64.8,30.03,East,94,2.2,3.4,59,0.00,,---,0.00,VWS V13.01,2013-10-27 21:06:00,
2013-10-27 17:11:00,80.2,64.8,30.02,East,83,4.0,5.2,59,0.00,,---,0.00,VWS V13.01,2013-10-27 21:11:00,
2013-10-27 17:16:00,80.0,65.0,30.02,East,94,2.9,2.9,60,0.00,,---,0.00,VWS V13.01,2013-10-27 21:16:00,
2013-10-27 17:21:00,79.9,65.0,30.02,NNE,24,6.2,9.9,60,0.00,,---,0.00,VWS V13.01,2013-10-27 21:21:00,
2013-10-27 17:26:00,79.8,64.9,30.02,East,83,4.6,7.5,60,0.00,,---,0.00,VWS V13.01,2013-10-27 21:26:00,
2013-10-27 17:31:00,79.8,64.9,30.03,ESE,122,3.5,8.6,60,0.00,,---,0.00,VWS V13.01,2013-10-27 21:31:00,
2013-10-27 17:36:00,79.4,64.7,30.03,East,86,2.1,2.5,61,0.00,,---,0.00,VWS V13.01,2013-10-27 21:36:00,
2013-10-27 17:41:00,79.3,64.8,30.03,ESE,110,1.6,7.3,61,0.00,,---,0.00,VWS V13.01,2013-10-27 21:41:00,
2013-10-27 17:46:00,79.2,64.9,30.03,ENE,76,5.6,6.0,62,0.00,,---,0.00,VWS V13.01,2013-10-27 21:46:00,
2013-10-27 17:51:00,79.5,64.7,30.03,ENE,73,3.2,4.5,60,0.00,,---,0.00,VWS V13.01,2013-10-27 21:51:00,
2013-10-27 17:56:00,79.4,64.5,30.03,NE,56,4.5,7.0,60,0.00,,---,0.00,VWS V13.01,2013-10-27 21:56:00,
2013-10-27 18:01:00,79.0,64.2,30.03,NE,35,6.0,9.3,60,0.00,,---,0.00,VWS V13.01,2013-10-27 22:01:00,
2013-10-27 18:07:00,79.2,64.2,30.03,NE,52,3.9,5.8,60,0.00,,---,0.00,VWS V13.01,2013-10-27 22:07:00,
2013-10-27 18:12:00,79.1,64.3,30.03,East,82,3.0,3.0,60,0.00,,---,0.00,VWS V13.01,2013-10-27 22:12:00,
2013-10-27 18:17:00,78.9,64.3,30.03,East,96,0.6,4.8,61,0.00,,---,0.00,VWS V13.01,2013-10-27 22:17:00,
2013-10-27 18:22:00,78.4,64.2,30.03,NE,51,3.9,8.9,62,0.00,,---,0.00,VWS V13.01,2013-10-27 22:22:00,
2013-10-27 18:27:00,78.4,64.1,30.03,ENE,77,3.2,6.0,62,0.00,,---,0.00,VWS V13.01,2013-10-27 22:27:00,
2013-10-27 18:32:00,78.4,64.6,30.03,NE,34,4.8,7.3,63,0.00,,---,0.00,VWS V13.01,2013-10-27 22:32:00,
2013-10-27 18:37:00,78.1,64.5,30.03,ESE,105,4.4,5.8,63,0.00,,---,0.00,VWS V13.01,2013-10-27 22:37:00,
2013-10-27 18:42:00,78.2,64.6,30.03,ESE,118,0.7,2.8,63,0.00,,---,0.00,VWS V13.01,2013-10-27 22:42:00,
2013-10-27 18:47:00,77.9,64.6,30.03,ENE,66,4.0,4.5,64,0.00,,---,0.00,VWS V13.01,2013-10-27 22:47:00,
2013-10-27 18:52:00,77.8,64.5,30.03,East,83,5.3,5.5,64,0.00,,---,0.00,VWS V13.01,2013-10-27 22:52:00,
2013-10-27 18:57:00,77.7,64.5,30.04,SE,131,5.6,6.3,64,0.00,,---,0.00,VWS V13.01,2013-10-27 22:57:00,
2013-10-27 19:02:00,77.4,64.6,30.04,ESE,103,3.4,4.9,65,0.00,,---,0.00,VWS V13.01,2013-10-27 23:02:00,
2013-10-27 19:07:00,77.3,64.4,30.04,NE,41,3.5,6.1,64,0.00,,---,0.00,VWS V13.01,2013-10-27 23:07:00,
2013-10-27 19:12:00,77.4,64.4,30.04,ENE,76,2.3,3.8,64,0.00,,---,0.00,VWS V13.01,2013-10-27 23:12:00,
2013-10-27 19:17:00,77.4,64.2,30.05,East,101,4.5,4.5,64,0.00,,---,0.00,VWS V13.01,2013-10-27 23:17:00,
2013-10-27 19:22:00,77.4,64.2,30.05,ENE,70,1.7,3.2,64,0.00,,---,0.00,VWS V13.01,2013-10-27 23:22:00,
2013-10-27 19:27:00,77.2,64.3,30.05,ENE,68,3.5,6.4,64,0.00,,---,0.00,VWS V13.01,2013-10-27 23:27:00,
2013-10-27 19:32:00,77.3,64.4,30.05,ENE,76,4.8,5.8,64,0.00,,---,0.00,VWS V13.01,2013-10-27 23:32:00,
2013-10-27 19:37:00,77.2,64.2,30.05,East,80,0.0,0.0,64,0.00,,---,0.00,VWS V13.01,2013-10-27 23:37:00,
2013-10-27 19:42:00,77.1,64.2,30.05,ENE,76,4.2,6.3,64,0.00,,---,0.00,VWS V13.01,2013-10-27 23:42:00,
2013-10-27 19:47:00,77.1,64.1,30.05,East,86,3.5,3.5,64,0.00,,---,0.00,VWS V13.01,2013-10-27 23:47:00,
2013-10-27 19:52:00,77.3,64.4,30.05,ESE,120,1.6,4.3,64,0.00,,---,0.00,VWS V13.01,2013-10-27 23:52:00,
2013-10-27 19:57:00,77.2,64.5,30.05,SE,125,1.5,4.6,65,0.00,,---,0.00,VWS V13.01,2013-10-27 23:57:00,
2013-10-27 20:02:00,77.0,64.5,30.05,East,96,2.8,5.4,65,0.00,,---,0.00,VWS V13.01,2013-10-28 00:02:00,
2013-10-27 20:07:00,77.1,64.7,30.06,ENE,76,2.9,6.8,66,0.00,,---,0.00,VWS V13.01,2013-10-28 00:07:00,
2013-10-27 20:13:00,77.1,64.8,30.06,East,96,3.2,3.6,66,0.00,,---,0.00,VWS V13.01,2013-10-28 00:13:00,
2013-10-27 20:18:00,77.3,65.0,30.06,ENE,69,3.8,3.8,66,0.00,,---,0.00,VWS V13.01,2013-10-28 00:18:00,
2013-10-27 20:23:00,77.0,64.6,30.06,ESE,117,1.9,4.2,66,0.00,,---,0.00,VWS V13.01,2013-10-28 00:23:00,
2013-10-27 20:28:00,77.1,64.6,30.06,East,98,4.0,6.0,65,0.00,,---,0.00,VWS V13.01,2013-10-28 00:28:00,
2013-10-27 20:33:00,76.9,64.4,30.07,ENE,68,0.8,2.2,65,0.00,,---,0.00,VWS V13.01,2013-10-28 00:33:00,
2013-10-27 20:38:00,77.0,64.6,30.07,ESE,120,3.0,4.3,66,0.00,,---,0.00,VWS V13.01,2013-10-28 00:38:00,
2013-10-27 20:43:00,77.0,64.7,30.07,East,100,3.7,5.5,66,0.00,,---,0.00,VWS V13.01,2013-10-28 00:43:00,
2013-10-27 20:48:00,76.8,64.5,30.07,SE,138,2.9,7.0,66,0.00,,---,0.00,VWS V13.01,2013-10-28 00:48:00,
2013-10-27 20:53:00,76.9,64.6,30.07,ENE,58,1.1,4.2,66,0.00,,---,0.00,VWS V13.01,2013-10-28 00:53:00,
2013-10-27 20:58:00,76.9,64.7,30.07,SE,125,0.6,2.6,66,0.00,,---,0.00,VWS V13.01,2013-10-28 00:58:00,
2013-10-27 21:03:00,76.8,64.7,30.07,East,91,2.3,4.3,66,0.00,,---,0.00,VWS V13.01,2013-10-28 01:03:00,
2013-10-27 21:08:00,76.9,64.8,30.08,East,84,6.3,6.3,66,0.00,,---,0.00,VWS V13.01,2013-10-28 01:08:00,
2013-10-27 21:13:00,76.6,64.4,30.08,ESE,108,5.5,5.5,66,0.00,,---,0.00,VWS V13.01,2013-10-28 01:13:00,
2013-10-27 21:18:00,76.7,64.5,30.08,NE,55,0.9,4.5,66,0.00,,---,0.00,VWS V13.01,2013-10-28 01:18:00,
2013-10-27 21:23:00,76.9,64.8,30.08,ENE,77,3.7,3.7,66,0.00,,---,0.00,VWS V13.01,2013-10-28 01:23:00,
2013-10-27 21:28:00,76.7,64.7,30.08,ESE,105,2.4,5.5,66,0.00,,---,0.00,VWS V13.01,2013-10-28 01:28:00,
2013-10-27 21:33:00,76.7,64.8,30.08,ESE,107,5.0,7.4,67,0.00,,---,0.00,VWS V13.01,2013-10-28 01:33:00,
2013-10-27 21:38:00,76.8,64.8,30.08,East,98,6.0,6.5,66,0.00,,---,0.00,VWS V13.01,2013-10-28 01:38:00,
2013-10-27 21:43:00,76.6,64.5,30.08,ENE,73,3.0,4.8,66,0.00,,---,0.00,VWS V13.01,2013-10-28 01:43:00,
2013-10-27 21:48:00,76.8,64.7,30.08,East,87,4.0,4.4,66,0.00,,---,0.00,VWS V13.01,2013-10-28 01:48:00,
2013-10-27 21:53:00,76.5,64.3,30.09,East,87,2.3,4.9,66,0.00,,---,0.00,VWS V13.01,2013-10-28 01:53:00,
2013-10-27 21:58:00,76.7,64.5,30.09,ESE,121,4.8,5.7,66,0.00,,---,0.00,VWS V13.01,2013-10-28 01:58:00,
2013-10-27 22:03:00,76.8,64.3,30.09,SE,145,8.0,8.0,65,0.00,,---,0.00,VWS V13.01,2013-10-28 02:03:00,
2013-10-27 22:08:00,76.8,64.2,30.09,East,86,3.6,6.2,65,0.00,,---,0.00,VWS V13.01,2013-10-28 02:08:00,
2013-10-27 22:13:00,76.4,63.9,30.09,ESE,104,3.8,8.0,65,0.00,,---,0.00,VWS V13.01,2013-10-28 02:13:00,
2013-10-27 22:18:00,76.6,64.2,30.09,East,82,4.9,9.3,66,0.00,,---,0.00,VWS V13.01,2013-10-28 02:18:00,
2013-10-27 22:23:00,76.8,64.4,30.09,East,100,4.6,5.6,66,0.00,,---,0.00,VWS V13.01,2013-10-28 02:23:00,
2013-10-27 22:28:00,76.6,64.0,30.09,ENE,75,1.4,2.4,65,0.00,,---,0.00,VWS V13.01,2013-10-28 02:28:00,
2013-10-27 22:33:00,76.5,63.7,30.10,East,82,1.9,3.7,64,0.00,,---,0.00,VWS V13.01,2013-10-28 02:33:00,
2013-10-27 22:38:00,76.4,63.6,30.10,NE,44,1.6,2.6,65,0.00,,---,0.00,VWS V13.01,2013-10-28 02:38:00,
2013-10-27 22:43:00,76.3,63.5,30.10,SE,128,2.1,5.5,65,0.00,,---,0.00,VWS V13.01,2013-10-28 02:43:00,
2013-10-27 22:48:00,76.4,63.6,30.10,ESE,108,2.4,3.7,64,0.00,,---,0.00,VWS V13.01,2013-10-28 02:48:00,
2013-10-27 22:53:00,76.3,63.5,30.10,ENE,72,0.9,3.4,65,0.00,,---,0.00,VWS V13.01,2013-10-28 02:53:00,
2013-10-27 22:58:00,76.3,63.2,30.10,NE,56,0.0,2.1,64,0.00,,---,0.00,VWS V13.01,2013-10-28 02:58:00,
2013-10-27 23:03:00,76.3,63.3,30.10,East,96,0.0,2.2,64,0.00,,---,0.00,VWS V13.01,2013-10-28 03:03:00,
2013-10-27 23:08:00,76.2,63.5,30.10,East,100,2.1,2.9,65,0.00,,---,0.00,VWS V13.01,2013-10-28 03:08:00,
2013-10-27 23:13:00,76.2,63.7,30.10,ESE,110,1.5,5.3,65,0.00,,---,0.00,VWS V13.01,2013-10-28 03:13:00,
2013-10-27 23:18:00,76.3,63.5,30.10,ESE,115,3.4,8.8,64,0.00,,---,0.00,VWS V13.01,2013-10-28 03:18:00,
2013-10-27 23:23:00,76.6,63.7,30.10,ESE,110,0.0,5.3,64,0.00,,---,0.00,VWS V13.01,2013-10-28 03:23:00,
2013-10-27 23:28:00,76.2,63.4,30.10,SSE,148,3.4,6.3,64,0.00,,---,0.00,VWS V13.01,2013-10-28 03:28:00,
2013-10-27 23:33:00,76.5,63.5,30.10,NE,48,2.4,4.7,64,0.00,,---,0.00,VWS V13.01,2013-10-28 03:33:00,
2013-10-27 23:38:00,76.4,63.2,30.10,SE,124,4.6,6.4,64,0.00,,---,0.00,VWS V13.01,2013-10-28 03:38:00,
2013-10-27 23:43:00,76.4,62.9,30.10,East,83,1.6,5.2,63,0.00,,---,0.00,VWS V13.01,2013-10-28 03:43:00,
2013-10-27 23:48:00,76.7,63.3,30.10,East,79,2.9,6.9,63,0.00,,---,0.00,VWS V13.01,2013-10-28 03:48:00,
2013-10-27 23:53:00,76.4,63.2,30.10,East,97,4.1,6.6,64,0.00,,---,0.00,VWS V13.01,2013-10-28 03:53:00,
2013-10-27 23:58:00,76.3,63.3,30.10,East,100,1.2,4.5,64,0.00,,---,0.00,VWS V13.01,2013-10-28 03:58:00,